sat.trackr.live / text

‹ back to catalog

STARLINK-11647 [DTC]

NORAD 63191 · 2025-048J

PAYLOAD ACTIVE UNKNOWN

§ Identity

Operator
Country
US
Launch date
2025-03-13
Launch site
AFETR
Launch vehicle
Mass (kg)
RCS (m²)

Purposes: comms

External: N2YO · Heavens-Above · Gunter

§ Orbital elements

Epoch: 2026-05-24T11:41:12.315840Z

Period
91.67 min
Inclination
42.9984°
Eccentricity
0.0000920
Mean motion
15.70847644 rev/d
Perigee alt
355.9 km
Apogee alt
357.1 km
Semi-major
6,734.6 km
B*
1.2528e-3
RAAN
222.8712°
Arg perigee
130.6263°
Mean anomaly
229.4684°
Rev number
7,044

§ Raw data

STARLINK-11647 [DTC]1 63191U 25048J   26144.48694810  .00163557  00000+0  12528-2 0  99922 63191  42.9984 222.8712 0000920 130.6263 229.4684 15.70847644 70440

JSON: /api/v1/satellites/63191 · /tle

For live sub-satellite position, see the globe view (requires WebGL).

§ Visibility from observer

Set your observer location to see the next 7 days of passes ≥ 10°. The values pass through the URL so the page stays shareable.

No JS? Fill the form by hand. The geolocation button needs JavaScript.